TimeEDT,TemperatureF,Dew PointF,Humidity,Sea Level PressureIn,VisibilityMPH,Wind Direction,Wind SpeedMPH,Gust SpeedMPH,PrecipitationIn,Events,Conditions,WindDirDegrees,DateUTC
12:15 AM,42.8,39.2,87,30.30,10.0,Calm,Calm,-,N/A,,Clear,0,2012-10-14 04:15:00
12:35 AM,44.6,41.0,87,30.30,10.0,Calm,Calm,-,N/A,,Clear,0,2012-10-14 04:35:00
1:15 AM,46.4,41.0,81,30.28,10.0,Calm,Calm,-,N/A,,Clear,0,2012-10-14 05:15:00
1:35 AM,44.6,41.0,87,30.27,10.0,South,3.5,-,N/A,,Clear,180,2012-10-14 05:35:00
1:55 AM,46.4,42.8,87,30.26,10.0,SSW,3.5,-,N/A,,Clear,210,2012-10-14 05:55:00
2:15 AM,46.4,41.0,81,30.26,10.0,SSW,3.5,-,N/A,,Clear,210,2012-10-14 06:15:00
2:35 AM,46.4,41.0,81,30.25,10.0,Calm,Calm,-,N/A,,Clear,0,2012-10-14 06:35:00
2:55 AM,46.4,41.0,81,30.24,10.0,Calm,Calm,-,N/A,,Clear,0,2012-10-14 06:55:00
3:15 AM,48.2,41.0,76,30.23,10.0,SSW,3.5,-,N/A,,Clear,210,2012-10-14 07:15:00
3:35 AM,48.2,42.8,82,30.23,10.0,SSW,4.6,-,N/A,,Clear,210,2012-10-14 07:35:00
3:55 AM,50.0,42.8,76,30.23,10.0,SSW,6.9,-,N/A,,Scattered Clouds,210,2012-10-14 07:55:00
4:15 AM,50.0,42.8,76,30.22,10.0,SSW,6.9,-,N/A,,Scattered Clouds,210,2012-10-14 08:15:00
4:35 AM,50.0,42.8,76,30.21,10.0,SSW,3.5,-,N/A,,Mostly Cloudy,210,2012-10-14 08:35:00
4:55 AM,50.0,42.8,76,30.21,10.0,SSW,5.8,-,N/A,,Overcast,210,2012-10-14 08:55:00
5:15 AM,50.0,44.6,82,30.21,10.0,SW,4.6,-,N/A,,Overcast,220,2012-10-14 09:15:00
5:35 AM,50.0,44.6,82,30.21,10.0,WSW,4.6,-,N/A,,Overcast,250,2012-10-14 09:35:00
5:55 AM,50.0,44.6,82,30.21,10.0,SW,3.5,-,N/A,,Overcast,230,2012-10-14 09:55:00
6:15 AM,50.0,44.6,82,30.21,10.0,WSW,3.5,-,N/A,,Overcast,240,2012-10-14 10:15:00
6:35 AM,50.0,46.4,87,30.20,10.0,SSW,3.5,-,N/A,,Overcast,210,2012-10-14 10:35:00
6:45 AM,51.8,44.6,76,30.20,10.0,WSW,9.2,-,N/A,,Overcast,240,2012-10-14 10:45:00
7:45 AM,51.8,46.4,82,30.21,10.0,SW,8.1,-,N/A,,Overcast,230,2012-10-14 11:45:00
8:45 AM,53.6,46.4,77,30.20,15.0,SW,8.1,-,N/A,,Mostly Cloudy,220,2012-10-14 12:45:00
9:45 AM,55.4,48.2,77,30.20,10.0,SW,8.1,-,N/A,,Mostly Cloudy,220,2012-10-14 13:45:00
10:45 AM,57.2,48.2,72,30.18,10.0,WSW,11.5,20.7,N/A,,Overcast,240,2012-10-14 14:45:00
12:45 PM,64.4,51.8,64,30.14,10.0,SW,8.1,15.0,N/A,,Mostly Cloudy,230,2012-10-14 16:45:00
1:45 PM,68.0,51.8,56,30.10,10.0,WSW,8.1,17.3,N/A,,Mostly Cloudy,240,2012-10-14 17:45:00
2:45 PM,69.8,51.8,53,30.06,10.0,SW,9.2,23.0,N/A,,Partly Cloudy,220,2012-10-14 18:45:00
3:45 PM,71.6,51.8,50,30.04,10.0,WSW,13.8,21.9,N/A,,Clear,240,2012-10-14 19:45:00
4:45 PM,71.6,48.2,43,30.02,10.0,SW,13.8,23.0,N/A,,Partly Cloudy,220,2012-10-14 20:45:00
5:45 PM,69.8,48.2,46,30.01,10.0,SW,11.5,-,N/A,,Partly Cloudy,230,2012-10-14 21:45:00
6:45 PM,66.2,46.4,49,30.01,10.0,SSW,4.6,-,N/A,,Clear,210,2012-10-14 22:45:00
7:45 PM,64.4,48.2,56,30.00,10.0,SW,6.9,-,N/A,,Clear,230,2012-10-14 23:45:00
8:45 PM,62.6,50.0,63,30.00,10.0,SW,9.2,-,N/A,,Clear,230,2012-10-15 00:45:00
9:45 PM,62.6,51.8,68,29.99,10.0,South,8.1,-,N/A,,Clear,190,2012-10-15 01:45:00
10:55 PM,57.2,53.6,88,29.97,10.0,Calm,Calm,-,N/A,,Clear,0,2012-10-15 02:55:00
11:15 PM,57.2,53.6,88,29.96,10.0,Calm,Calm,-,N/A,,Clear,0,2012-10-15 03:15:00
11:35 PM,55.4,51.8,88,29.95,7.0,Calm,Calm,-,N/A,,Clear,0,2012-10-15 03:35:00
11:55 PM,53.6,51.8,94,29.95,7.0,Calm,Calm,-,N/A,,Clear,0,2012-10-15 03:55:00